When you browse on this site, cookies collect data to enhance your experience and personalize the content and advertising you see.
Visit our Privacy Policy to learn more. By continuing to use the site, you agree to this use of cookies and data.

Hourly Weather Gold Coast

Today, 5 August, Wednesday

Time Temperature Precipitation Wind Pressure Humidity
00:00 +12°C° 0 mm 3 mps 757 mmHg 74%
01:00 +12°C° 0 mm 3 mps 757 mmHg 75%
02:00 +12°C° 0 mm 3 mps 757 mmHg 75%
03:00 +11°C° 0 mm 3 mps 756 mmHg 75%
04:00 +12°C° 0 mm 3 mps 756 mmHg 75%
05:00 +11°C° 0 mm 3 mps 756 mmHg 75%
06:00 +11°C° 0 mm 3 mps 757 mmHg 75%
07:00 +11°C° 0 mm 3 mps 757 mmHg 76%
08:00 +14°C° 0 mm 3 mps 757 mmHg 66%
09:00 +18°C° 0 mm 3 mps 757 mmHg 56%
10:00 +22°C° 0 mm 3 mps 757 mmHg 46%
11:00 +24°C° 0 mm 3 mps 756 mmHg 42%
12:00 +25°C° 0 mm 3 mps 756 mmHg 37%
13:00 +26°C° 0 mm 3 mps 755 mmHg 33%
14:00 +26°C° 0 mm 3 mps 755 mmHg 35%
15:00 +25°C° 0 mm 3 mps 755 mmHg 37%
16:00 +24°C° 0 mm 3 mps 755 mmHg 42%
17:00 +21°C° 0 mm 3 mps 756 mmHg 50%
18:00 +18°C° 0 mm 3 mps 756 mmHg 58%
19:00 +16°C° 0 mm 3 mps 757 mmHg 66%
20:00 +14°C° 0 mm 3 mps 757 mmHg 65%
21:00 +15°C° 0 mm 2 mps 757 mmHg 64%
22:00 +14°C° 0 mm 2 mps 757 mmHg 64%
23:00 +14°C° 0 mm 2 mps 757 mmHg 63%

Tomorrow, 6 August, Thursday

Time Temperature Precipitation Wind Pressure Humidity
00:00 +14°C° 0 mm 2 mps 757 mmHg 63%
01:00 +13°C° 0 mm 2 mps 758 mmHg 62%
02:00 +13°C° 0 mm 2 mps 757 mmHg 64%
03:00 +12°C° 0 mm 2 mps 757 mmHg 65%
04:00 +12°C° 0 mm 1 mps 757 mmHg 66%
05:00 +12°C° 0 mm 1 mps 758 mmHg 66%
06:00 +12°C° 0 mm 1 mps 758 mmHg 67%
07:00 +12°C° 0 mm 1 mps 759 mmHg 67%
08:00 +15°C° 0 mm 1 mps 759 mmHg 57%
09:00 +20°C° 0 mm 1 mps 759 mmHg 48%
10:00 +24°C° 0 mm 1 mps 759 mmHg 38%
11:00 +24°C° 0 mm 1 mps 759 mmHg 37%
12:00 +25°C° 0 mm 2 mps 758 mmHg 35%
13:00 +25°C° 0 mm 2 mps 758 mmHg 33%
14:00 +24°C° 0 mm 3 mps 758 mmHg 42%
15:00 +21°C° 0 mm 3 mps 758 mmHg 51%
16:00 +20°C° 0 mm 3 mps 758 mmHg 60%
17:00 +18°C° 0 mm 3 mps 758 mmHg 69%
18:00 +16°C° 0 mm 3 mps 759 mmHg 78%
19:00 +13°C° 0 mm 3 mps 760 mmHg 88%
20:00 +13°C° 0 mm 3 mps 760 mmHg 87%
21:00 +13°C° 0 mm 2 mps 760 mmHg 86%
22:00 +13°C° 0 mm 2 mps 760 mmHg 85%
23:00 +13°C° 0 mm 2 mps 760 mmHg 85%

Day after tomorrow, 7 August, Friday

Time Temperature Precipitation Wind Pressure Humidity
00:00 +13°C° 0 mm 2 mps 760 mmHg 84%
01:00 +13°C° 0 mm 2 mps 760 mmHg 84%
02:00 +13°C° 0.1 mm 3 mps 760 mmHg 84%
03:00 +13°C° 0.1 mm 3 mps 760 mmHg 84%
04:00 +14°C° 0.1 mm 3 mps 760 mmHg 84%
05:00 +14°C° 0.2 mm 3 mps 760 mmHg 85%
06:00 +14°C° 0.2 mm 4 mps 760 mmHg 87%
07:00 +15°C° 0.2 mm 4 mps 761 mmHg 88%
08:00 +17°C° 0.2 mm 4 mps 761 mmHg 86%
09:00 +17°C° 0.2 mm 5 mps 761 mmHg 85%
10:00 +19°C° 0.2 mm 5 mps 761 mmHg 83%
11:00 +19°C° 0.5 mm 5 mps 760 mmHg 82%
12:00 +20°C° 0.5 mm 6 mps 759 mmHg 81%
13:00 +20°C° 0.5 mm 6 mps 759 mmHg 80%
14:00 +20°C° 0.4 mm 6 mps 758 mmHg 82%
15:00 +19°C° 0.4 mm 6 mps 758 mmHg 83%
16:00 +19°C° 0.4 mm 6 mps 757 mmHg 85%
17:00 +17°C° 0.7 mm 5 mps 758 mmHg 88%
18:00 +17°C° 0.7 mm 5 mps 758 mmHg 91%
19:00 +17°C° 0.7 mm 4 mps 759 mmHg 94%
20:00 +17°C° 2.9 mm 3 mps 759 mmHg 96%
21:00 +17°C° 2.9 mm 3 mps 759 mmHg 97%
22:00 +17°C° 2.9 mm 2 mps 759 mmHg 98%
23:00 +17°C° 1.1 mm 2 mps 759 mmHg 98%

8 August, Saturday

Time Temperature Precipitation Wind Pressure Humidity
00:00 +17°C° 1.1 mm 2 mps 758 mmHg 98%
01:00 +17°C° 1.1 mm 3 mps 758 mmHg 98%
02:00 +17°C° 0.3 mm 2 mps 757 mmHg 98%
03:00 +17°C° 0.3 mm 2 mps 757 mmHg 98%
04:00 +18°C° 0.3 mm 1 mps 757 mmHg 98%
05:00 +17°C° 0 mm 2 mps 757 mmHg 98%
06:00 +17°C° 0 mm 2 mps 757 mmHg 98%
07:00 +16°C° 0 mm 2 mps 757 mmHg 98%
08:00 +18°C° 0 mm 2 mps 757 mmHg 91%
09:00 +20°C° 0 mm 2 mps 757 mmHg 85%
10:00 +23°C° 0 mm 2 mps 757 mmHg 78%
11:00 +24°C° 0 mm 2 mps 756 mmHg 71%
12:00 +25°C° 0 mm 2 mps 756 mmHg 64%
13:00 +26°C° 0 mm 3 mps 755 mmHg 57%
14:00 +26°C° 0 mm 3 mps 754 mmHg 58%
15:00 +25°C° 0 mm 2 mps 754 mmHg 60%
16:00 +25°C° 0 mm 2 mps 754 mmHg 61%
17:00 +23°C° 0.1 mm 2 mps 754 mmHg 69%
18:00 +20°C° 0.1 mm 2 mps 754 mmHg 78%
19:00 +18°C° 0.1 mm 2 mps 754 mmHg 87%
20:00 +18°C° 0.1 mm 2 mps 755 mmHg 86%
21:00 +17°C° 0.1 mm 2 mps 755 mmHg 86%
22:00 +16°C° 0.1 mm 3 mps 755 mmHg 86%
23:00 +16°C° 0 mm 2 mps 755 mmHg 85%

9 August, Sunday

Time Temperature Precipitation Wind Pressure Humidity
00:00 +15°C° 0 mm 2 mps 755 mmHg 84%
01:00 +14°C° 0 mm 2 mps 755 mmHg 83%
02:00 +13°C° 0 mm 2 mps 755 mmHg 84%
03:00 +13°C° 0 mm 2 mps 755 mmHg 85%
04:00 +12°C° 0 mm 2 mps 755 mmHg 86%
05:00 +12°C° 0 mm 2 mps 755 mmHg 85%
06:00 +10°C° 0 mm 3 mps 755 mmHg 84%
07:00 +10°C° 0 mm 3 mps 756 mmHg 83%
08:00 +12°C° 0 mm 3 mps 756 mmHg 70%
09:00 +14°C° 0 mm 3 mps 756 mmHg 58%
10:00 +17°C° 0 mm 3 mps 756 mmHg 45%
11:00 +18°C° 0 mm 3 mps 755 mmHg 42%
12:00 +19°C° 0 mm 3 mps 755 mmHg 39%
13:00 +20°C° 0 mm 3 mps 754 mmHg 36%
14:00 +20°C° 0 mm 4 mps 754 mmHg 39%
15:00 +19°C° 0 mm 4 mps 753 mmHg 41%
16:00 +19°C° 0 mm 4 mps 753 mmHg 44%
17:00 +17°C° 0 mm 4 mps 754 mmHg 51%
18:00 +14°C° 0 mm 4 mps 754 mmHg 58%
19:00 +11°C° 0 mm 4 mps 754 mmHg 64%
20:00 +11°C° 0 mm 4 mps 755 mmHg 66%
21:00 +10°C° 0 mm 3 mps 755 mmHg 68%
22:00 +10°C° 0 mm 3 mps 756 mmHg 70%
23:00 +9°C° 0 mm 3 mps 755 mmHg 73%

10 August, Monday

Time Temperature Precipitation Wind Pressure Humidity
00:00 +9°C° 0 mm 3 mps 755 mmHg 76%
01:00 +8°C° 0 mm 3 mps 755 mmHg 79%
02:00 +8°C° 0 mm 3 mps 755 mmHg 81%
03:00 +8°C° 0 mm 3 mps 755 mmHg 83%
04:00 +7°C° 0 mm 3 mps 754 mmHg 85%
05:00 +6°C° 0 mm 4 mps 755 mmHg 85%
06:00 +7°C° 0 mm 4 mps 755 mmHg 85%
07:00 +7°C° 0 mm 4 mps 755 mmHg 86%
08:00 +9°C° 0 mm 5 mps 755 mmHg 73%
09:00 +13°C° 0 mm 5 mps 755 mmHg 61%
10:00 +15°C° 0 mm 6 mps 755 mmHg 48%
11:00 +16°C° 0 mm 5 mps 755 mmHg 45%
12:00 +19°C° 0 mm 5 mps 754 mmHg 43%
13:00 +20°C° 0 mm 5 mps 754 mmHg 40%
14:00 +17°C° 0 mm 5 mps 754 mmHg 52%
15:00 +16°C° 0 mm 6 mps 754 mmHg 65%
16:00 +14°C° 0 mm 6 mps 755 mmHg 77%
17:00 +14°C° 0 mm 6 mps 756 mmHg 80%
18:00 +13°C° 0 mm 6 mps 756 mmHg 82%
19:00 +11°C° 0 mm 6 mps 757 mmHg 85%
20:00 +10°C° 0 mm 6 mps 758 mmHg 87%
21:00 +10°C° 0 mm 6 mps 759 mmHg 88%
22:00 +9°C° 0 mm 5 mps 759 mmHg 90%
23:00 +9°C° 0 mm 5 mps 759 mmHg 91%
Show more